When you browse on this site, cookies collect data to enhance your experience and personalize the content and advertising you see.
Visit our Privacy Policy to learn more. By continuing to use the site, you agree to this use of cookies and data.
  • In Czech Republic
  • List of Countries
  • For 7 days
  • Water Temperature
  • Satellite Maps
  • Weather Map
  • Weather Widgets
  • user-avatar
    Login

    Hourly Weather Millville

    Today, 18 February, Monday

    Time Temperature Precipitation Wind Pressure Humidity
    00:00 +2°C° 2.7 mm 3 mps 759 mmHg 93%
    01:00 +3°C° 0 mm 2 mps 758 mmHg 94%
    02:00 +3°C° 1.2 mm 2 mps 757 mmHg 95%
    03:00 +3°C° 1.2 mm 2 mps 757 mmHg 96%
    04:00 +4°C° 1.2 mm 1 mps 756 mmHg 98%
    05:00 +3°C° 0.9 mm 2 mps 756 mmHg 97%
    06:00 +3°C° 0.9 mm 2 mps 756 mmHg 96%
    07:00 +3°C° 0 mm 0 mps 756 mmHg 96%
    08:00 +4°C° 0 mm 2 mps 757 mmHg 88%
    09:00 +4°C° 0 mm 4 mps 757 mmHg 80%
    10:00 +4°C° 0 mm 6 mps 758 mmHg 72%
    11:00 +5°C° 0 mm 7 mps 758 mmHg 67%
    12:00 +5°C° 0 mm 7 mps 758 mmHg 62%
    13:00 +6°C° 0 mm 8 mps 759 mmHg 57%
    14:00 +5°C° 0 mm 8 mps 760 mmHg 56%
    15:00 +4°C° 0 mm 8 mps 760 mmHg 55%
    16:00 +4°C° 0 mm 8 mps 761 mmHg 55%
    17:00 +3°C° 0 mm 7 mps 762 mmHg 57%
    18:00 +2°C° 0 mm 6 mps 764 mmHg 60%
    19:00 +1°C° 0 mm 6 mps 765 mmHg 62%
    20:00 0°C° 0 mm 5 mps 766 mmHg 63%
    21:00 -1°C° 0 mm 5 mps 767 mmHg 64%
    22:00 -2°C° 0 mm 4 mps 768 mmHg 65%
    23:00 -2°C° 0 mm 4 mps 769 mmHg 64%

    Tomorrow, 19 February, Tuesday

    Time Temperature Precipitation Wind Pressure Humidity
    00:00 -3°C° 0 mm 4 mps 769 mmHg 63%
    01:00 -2°C° 0 mm 3 mps 770 mmHg 63%
    02:00 -4°C° 0 mm 3 mps 771 mmHg 62%
    03:00 -4°C° 0 mm 3 mps 771 mmHg 61%
    04:00 -4°C° 0 mm 3 mps 772 mmHg 60%
    05:00 -5°C° 0 mm 3 mps 772 mmHg 58%
    06:00 -5°C° 0 mm 3 mps 773 mmHg 56%
    07:00 -5°C° 0 mm 3 mps 774 mmHg 54%
    08:00 -4°C° 0 mm 3 mps 774 mmHg 49%
    09:00 -2°C° 0 mm 3 mps 775 mmHg 44%
    10:00 -2°C° 0 mm 4 mps 775 mmHg 39%
    11:00 -1°C° 0 mm 4 mps 775 mmHg 37%
    12:00 0°C° 0 mm 4 mps 775 mmHg 34%
    13:00 +1°C° 0 mm 4 mps 775 mmHg 31%
    14:00 +1°C° 0 mm 4 mps 775 mmHg 32%
    15:00 +1°C° 0 mm 4 mps 775 mmHg 32%
    16:00 +2°C° 0 mm 3 mps 775 mmHg 33%
    17:00 +1°C° 0 mm 3 mps 775 mmHg 37%
    18:00 +1°C° 0 mm 2 mps 776 mmHg 41%
    19:00 -1°C° 0 mm 2 mps 776 mmHg 45%
    20:00 -1°C° 0 mm 2 mps 776 mmHg 45%
    21:00 -1°C° 0 mm 2 mps 776 mmHg 45%
    22:00 -1°C° 0 mm 2 mps 776 mmHg 45%
    23:00 -1°C° 0 mm 2 mps 776 mmHg 46%

    Day after tomorrow, 20 February, Wednesday

    Time Temperature Precipitation Wind Pressure Humidity
    00:00 +1°C° 0 mm 1 mps 776 mmHg 47%
    01:00 +1°C° 0 mm 1 mps 776 mmHg 48%
    02:00 0°C° 0 mm 1 mps 776 mmHg 48%
    03:00 0°C° 0 mm 1 mps 775 mmHg 49%
    04:00 0°C° 0 mm 1 mps 775 mmHg 49%
    05:00 0°C° 0 mm 1 mps 775 mmHg 49%
    06:00 0°C° 0 mm 1 mps 776 mmHg 49%
    07:00 0°C° 0 mm 1 mps 776 mmHg 49%
    08:00 +1°C° 0.1 mm 1 mps 776 mmHg 52%
    09:00 -1°C° 0.1 mm 2 mps 776 mmHg 56%
    10:00 -1°C° 0.1 mm 2 mps 776 mmHg 60%
    11:00 -1°C° 1.1 mm 2 mps 775 mmHg 70%
    12:00 -1°C° 1.1 mm 3 mps 775 mmHg 80%
    13:00 -2°C° 1.1 mm 3 mps 774 mmHg 90%
    14:00 -2°C° 0.8 mm 4 mps 773 mmHg 91%
    15:00 -2°C° 0.8 mm 4 mps 772 mmHg 91%
    16:00 -1°C° 0.8 mm 4 mps 771 mmHg 91%
    17:00 -1°C° 1.3 mm 4 mps 771 mmHg 92%
    18:00 0°C° 1.3 mm 4 mps 771 mmHg 94%
    19:00 +1°C° 1.3 mm 3 mps 770 mmHg 96%
    20:00 +1°C° 0.3 mm 4 mps 769 mmHg 97%
    21:00 +1°C° 0.3 mm 4 mps 768 mmHg 97%
    22:00 +2°C° 0.3 mm 5 mps 767 mmHg 98%
    23:00 +3°C° 1 mm 5 mps 766 mmHg 98%

    21 February, Thursday

    Time Temperature Precipitation Wind Pressure Humidity
    00:00 +5°C° 1 mm 5 mps 764 mmHg 98%
    01:00 +7°C° 1 mm 6 mps 762 mmHg 98%
    02:00 +7°C° 0.7 mm 5 mps 761 mmHg 98%
    03:00 +8°C° 0.7 mm 5 mps 760 mmHg 98%
    04:00 +9°C° 0.7 mm 5 mps 759 mmHg 98%
    05:00 +8°C° 0.9 mm 5 mps 759 mmHg 98%
    06:00 +7°C° 0.9 mm 5 mps 759 mmHg 97%
    07:00 +6°C° 0.9 mm 4 mps 759 mmHg 97%
    08:00 +7°C° 0.3 mm 5 mps 759 mmHg 96%
    09:00 +7°C° 0.3 mm 6 mps 759 mmHg 95%
    10:00 +8°C° 0.3 mm 6 mps 759 mmHg 94%
    11:00 +8°C° 0 mm 6 mps 759 mmHg 91%
    12:00 +9°C° 0 mm 6 mps 759 mmHg 87%
    13:00 +9°C° 0 mm 6 mps 759 mmHg 83%
    14:00 +9°C° 0 mm 6 mps 760 mmHg 78%
    15:00 +9°C° 0 mm 6 mps 760 mmHg 73%
    16:00 +9°C° 0 mm 6 mps 760 mmHg 67%
    17:00 +8°C° 0 mm 5 mps 761 mmHg 72%
    18:00 +6°C° 0 mm 5 mps 762 mmHg 77%
    19:00 +5°C° 0 mm 4 mps 763 mmHg 81%
    20:00 +4°C° 0 mm 4 mps 763 mmHg 81%
    21:00 +4°C° 0 mm 4 mps 764 mmHg 81%
    22:00 +3°C° 0 mm 3 mps 765 mmHg 82%
    23:00 +3°C° 0 mm 3 mps 765 mmHg 82%

    22 February, Friday

    Time Temperature Precipitation Wind Pressure Humidity
    00:00 +2°C° 0 mm 3 mps 766 mmHg 81%
    01:00 +2°C° 0 mm 3 mps 766 mmHg 81%
    02:00 +2°C° 0 mm 3 mps 767 mmHg 81%
    03:00 +2°C° 0 mm 2 mps 767 mmHg 81%
    04:00 +2°C° 0 mm 2 mps 767 mmHg 81%
    05:00 +2°C° 0 mm 2 mps 768 mmHg 81%
    06:00 +2°C° 0 mm 2 mps 768 mmHg 81%
    07:00 +2°C° 0 mm 2 mps 769 mmHg 81%
    08:00 +3°C° 0 mm 2 mps 769 mmHg 76%
    09:00 +4°C° 0 mm 2 mps 770 mmHg 71%
    10:00 +5°C° 0 mm 2 mps 770 mmHg 65%
    11:00 +6°C° 0 mm 2 mps 770 mmHg 62%
    12:00 +7°C° 0 mm 2 mps 770 mmHg 58%
    13:00 +8°C° 0 mm 2 mps 770 mmHg 55%
    14:00 +8°C° 0 mm 2 mps 770 mmHg 55%
    15:00 +8°C° 0 mm 2 mps 770 mmHg 55%
    16:00 +8°C° 0 mm 2 mps 770 mmHg 55%
    17:00 +7°C° 0 mm 2 mps 770 mmHg 60%
    18:00 +6°C° 0 mm 2 mps 771 mmHg 65%
    19:00 +5°C° 0 mm 2 mps 771 mmHg 70%
    20:00 +6°C° 0 mm 1 mps 771 mmHg 71%
    21:00 +5°C° 0 mm 1 mps 772 mmHg 73%
    22:00 +5°C° 0 mm 1 mps 772 mmHg 74%
    23:00 +5°C° 0 mm 1 mps 771 mmHg 75%

    23 February, Saturday

    Time Temperature Precipitation Wind Pressure Humidity
    00:00 +4°C° 0 mm 1 mps 771 mmHg 76%
    01:00 +4°C° 0 mm 1 mps 771 mmHg 77%
    02:00 +4°C° 0 mm 1 mps 771 mmHg 78%
    03:00 +4°C° 0 mm 1 mps 771 mmHg 79%
    04:00 +4°C° 0 mm 1 mps 770 mmHg 80%
    05:00 +3°C° 0 mm 1 mps 771 mmHg 81%
    06:00 +3°C° 0 mm 1 mps 771 mmHg 82%
    07:00 +3°C° 0 mm 1 mps 771 mmHg 83%
    08:00 +5°C° 0 mm 1 mps 771 mmHg 77%
    09:00 +5°C° 0 mm 2 mps 771 mmHg 72%
    10:00 +7°C° 0 mm 2 mps 771 mmHg 66%
    11:00 +8°C° 0 mm 3 mps 770 mmHg 63%
    12:00 +9°C° 0 mm 3 mps 769 mmHg 59%
    13:00 +10°C° 0 mm 3 mps 768 mmHg 56%
    14:00 +8°C° 0 mm 4 mps 768 mmHg 58%
    15:00 +8°C° 0 mm 4 mps 767 mmHg 60%
    16:00 +8°C° 0 mm 4 mps 767 mmHg 62%
    17:00 +8°C° 0.1 mm 3 mps 766 mmHg 70%
    18:00 +7°C° 0.1 mm 3 mps 766 mmHg 78%
    19:00 +7°C° 0.1 mm 2 mps 766 mmHg 85%
    20:00 +6°C° 0.1 mm 2 mps 765 mmHg 88%
    21:00 +6°C° 0.1 mm 2 mps 765 mmHg 90%
    22:00 +6°C° 0.1 mm 2 mps 764 mmHg 93%
    23:00 +7°C° 0.1 mm 1 mps 763 mmHg 94%
    Show more